| time (UTC) | temp F | wind direction | speed MPH | gust MPH | rain 1hr in | rain 24hr in | rain mn in | humidity % | barometer mb |
| 20260905211141 | 77 | 167 | 0.0 | 0.0 | 0.00 | 0.00 | 0.00 | 65 | 1010.2 |
| 20260905210127 | 77 | 91 | 0.0 | 2.0 | 0.00 | 0.00 | 0.00 | 64 | 1010.0 |
| 20260905205111 | 76 | 217 | 0.0 | 0.0 | 0.00 | 0.00 | 0.00 | 64 | 1010.0 |
| 20260905204130 | 76 | 229 | 0.0 | 0.0 | 0.00 | 0.00 | 0.00 | 66 | 1009.9 |
| 20260905203139 | 76 | 231 | 0.0 | 5.0 | 0.00 | 0.00 | 0.00 | 65 | 1009.9 |
| 20260905202135 | 77 | 234 | 0.0 | 0.0 | 0.00 | 0.00 | 0.00 | 64 | 1009.9 |
| 20260905201149 | 77 | 221 | 0.0 | 5.0 | 0.00 | 0.00 | 0.00 | 63 | 1009.9 |
| 20260905200133 | 78 | 313 | 0.0 | 1.0 | 0.00 | 0.00 | 0.00 | 61 | 1009.9 |
| 20260905195112 | 79 | 155 | 0.0 | 6.0 | 0.00 | 0.00 | 0.00 | 61 | 1009.8 |
| 20260905194101 | 79 | 147 | 0.0 | 3.0 | 0.00 | 0.00 | 0.00 | 60 | 1009.9 |
| 20260905193033 | 79 | 147 | 0.0 | 0.0 | 0.00 | 0.00 | 0.00 | 59 | 1009.9 |
| 20260905192029 | 79 | 242 | 0.0 | 4.0 | 0.00 | 0.00 | 0.00 | 62 | 1009.9 |
| 20260905191036 | 79 | 208 | 0.0 | 4.0 | 0.00 | 0.00 | 0.00 | 60 | 1010.0 |
| 20260905190047 | 78 | 181 | 0.0 | 7.0 | 0.00 | 0.00 | 0.00 | 63 | 1010.1 |
| 20260905183906 | 78 | 298 | 0.0 | 0.0 | 0.00 | 0.00 | 0.00 | 65 | 1010.1 |
| 20260905174355 | 78 | 339 | 0.0 | 7.0 | 0.00 | 0.00 | 0.00 | 61 | 1010.3 |
| 20260905173415 | 77 | 244 | 0.0 | 0.0 | 0.00 | 0.00 | 0.00 | 64 | 1010.4 |
| 20260905171236 | 77 | 163 | 0.0 | 3.0 | 0.00 | 0.00 | 0.00 | 63 | 1010.5 |
| 20260905170209 | 76 | 120 | 0.0 | 5.0 | 0.00 | 0.00 | 0.00 | 65 | 1010.6 |
| 20260905164120 | 75 | 307 | 0.0 | 6.0 | 0.00 | 0.00 | 0.00 | 67 | 1010.6 |
| 20260905163052 | 74 | 178 | 0.0 | 1.0 | 0.00 | 0.00 | 0.00 | 70 | 1010.5 |
| 20260905162040 | 74 | 271 | 0.0 | 6.0 | 0.00 | 0.00 | 0.00 | 68 | 1010.6 |
| 20260905161101 | 73 | 230 | 0.0 | 7.0 | 0.00 | 0.00 | 0.00 | 71 | 1010.6 |
| 20260905160124 | 73 | 225 | 0.0 | 7.0 | 0.00 | 0.00 | 0.00 | 70 | 1010.6 |
| 20260905155133 | 73 | 208 | 1.0 | 7.0 | 0.00 | 0.00 | 0.00 | 70 | 1010.6 |
| 20260905154120 | 73 | 245 | 0.0 | 4.0 | 0.00 | 0.00 | 0.00 | 73 | 1010.6 |
| 20260905153102 | 73 | 168 | 0.0 | 5.0 | 0.00 | 0.00 | 0.00 | 72 | 1010.7 |
| 20260905152055 | 73 | 335 | 0.0 | 4.0 | 0.00 | 0.00 | 0.00 | 75 | 1010.7 |
| 20260905151104 | 72 | 120 | 0.0 | 2.0 | 0.00 | 0.00 | 0.00 | 77 | 1010.7 |
| 20260905150114 | 71 | 56 | 0.0 | 4.0 | 0.00 | 0.00 | 0.00 | 77 | 1010.7 |
| 20260905145054 | 71 | 210 | 0.0 | 6.0 | 0.00 | 0.00 | 0.00 | 78 | 1010.7 |
| 20260905144053 | 71 | 165 | 0.0 | 6.0 | 0.00 | 0.00 | 0.00 | 77 | 1010.7 |
| 20260905143107 | 70 | 237 | 1.0 | 6.0 | 0.00 | 0.00 | 0.00 | 79 | 1010.6 |
| 20260905142051 | 70 | 223 | 0.0 | 6.0 | 0.00 | 0.00 | 0.00 | 81 | 1010.5 |
| 20260905135846 | 69 | 224 | 0.0 | 9.0 | 0.00 | 0.00 | 0.00 | 82 | 1010.6 |
| 20260905134837 | 68 | 169 | 0.0 | 9.0 | 0.00 | 0.00 | 0.00 | 83 | 1010.6 |
| 20260905133854 | 68 | 229 | 0.0 | 5.0 | 0.00 | 0.00 | 0.00 | 85 | 1010.6 |
| 20260905132906 | 68 | 238 | 0.0 | 3.0 | 0.00 | 0.00 | 0.00 | 85 | 1010.7 |
| 20260905131928 | 67 | 219 | 0.0 | 5.0 | 0.00 | 0.00 | 0.00 | 85 | 1010.9 |
| 20260905130931 | 67 | 229 | 0.0 | 4.0 | 0.00 | 0.00 | 0.00 | 87 | 1010.8 |
| 20260905125908 | 66 | 236 | 0.0 | 0.0 | 0.00 | 0.00 | 0.00 | 87 | 1010.9 |
| 20260905123716 | 65 | 248 | 0.0 | 8.0 | 0.00 | 0.00 | 0.00 | 89 | 1010.9 |
| 20260905122718 | 64 | 255 | 0.0 | 3.0 | 0.00 | 0.00 | 0.00 | 90 | 1011.0 |
| 20260905120542 | 63 | 211 | 0.0 | 0.0 | 0.00 | 0.00 | 0.00 | 94 | 1010.9 |
| 20260905115548 | 62 | 221 | 0.0 | 0.0 | 0.00 | 0.00 | 0.00 | 96 | 1010.9 |
| 20260905114548 | 61 | 227 | 0.0 | 0.0 | 0.00 | 0.00 | 0.00 | 96 | 1010.8 |
| 20260905113527 | 60 | 210 | 0.0 | 0.0 | 0.00 | 0.01 | 0.00 | 96 | 1010.7 |
| 20260905111357 | 59 | 203 | 0.0 | 0.0 | 0.00 | 0.01 | 0.00 | 95 | 1010.4 |
| 20260905104152 | 60 | 203 | 0.0 | 0.0 | 0.00 | 0.01 | 0.00 | 94 | 1010.0 |
| 20260905103158 | 60 | 203 | 0.0 | 0.0 | 0.00 | 0.01 | 0.00 | 94 | 1010.1 |
| 20260905102214 | 60 | 203 | 0.0 | 0.0 | 0.00 | 0.01 | 0.00 | 94 | 1009.9 |
| 20260905101140 | 60 | 203 | 0.0 | 0.0 | 0.00 | 0.01 | 0.00 | 94 | 1009.8 |
| 20260905100106 | 61 | 203 | 0.0 | 0.0 | 0.00 | 0.01 | 0.00 | 93 | 1009.8 |
| 20260905094011 | 61 | 203 | 0.0 | 0.0 | 0.00 | 0.01 | 0.00 | 92 | 1009.7 |
| 20260905093019 | 61 | 203 | 0.0 | 0.0 | 0.00 | 0.01 | 0.00 | 92 | 1009.7 |
| 20260905092014 | 62 | 203 | 0.0 | 0.0 | 0.00 | 0.01 | 0.00 | 91 | 1009.7 |
| 20260905091035 | 62 | 203 | 0.0 | 0.0 | 0.00 | 0.01 | 0.00 | 91 | 1009.6 |
| 20260905084822 | 62 | 224 | 0.0 | 1.0 | 0.00 | 0.01 | 0.00 | 89 | 1009.7 |
| 20260905082737 | 62 | 223 | 0.0 | 0.0 | 0.00 | 0.01 | 0.00 | 89 | 1009.7 |
| 20260905081737 | 63 | 223 | 0.0 | 0.0 | 0.00 | 0.01 | 0.00 | 89 | 1009.7 |
| 20260905080749 | 63 | 215 | 0.0 | 0.0 | 0.00 | 0.01 | 0.00 | 88 | 1009.7 |
| 20260905074559 | 65 | 215 | 0.0 | 0.0 | 0.00 | 0.04 | 0.00 | 84 | 1009.8 |
| 20260905073549 | 65 | 215 | 0.0 | 0.0 | 0.00 | 0.07 | 0.00 | 83 | 1009.7 |
| 20260905072549 | 66 | 240 | 0.0 | 0.0 | 0.00 | 0.13 | 0.00 | 82 | 1009.7 |
| 20260905071549 | 66 | 235 | 0.0 | 1.0 | 0.00 | 0.28 | 0.00 | 82 | 1009.7 |
| 20260905070610 | 66 | 233 | 0.0 | 1.0 | 0.00 | 0.29 | 0.00 | 81 | 1009.8 |
| 20260905065617 | 67 | 230 | 0.0 | 0.0 | 0.00 | 0.29 | 0.00 | 81 | 1009.8 |
| 20260905064553 | 67 | 212 | 0.0 | 3.0 | 0.00 | 0.29 | 0.00 | 81 | 1010.0 |
| 20260905063549 | 67 | 260 | 0.0 | 1.0 | 0.00 | 0.29 | 0.00 | 81 | 1009.9 |
| 20260905062536 | 66 | 246 | 0.0 | 4.0 | 0.00 | 0.29 | 0.00 | 82 | 1010.0 |
| 20260905061526 | 66 | 238 | 0.0 | 1.0 | 0.00 | 0.29 | 0.00 | 83 | 1010.1 |
| 20260905060546 | 66 | 219 | 0.0 | 2.0 | 0.00 | 0.29 | 0.00 | 83 | 1010.2 |
| 20260905055518 | 66 | 225 | 0.0 | 0.0 | 0.00 | 0.29 | 0.00 | 84 | 1010.3 |
| 20260905054514 | 65 | 246 | 0.0 | 1.0 | 0.00 | 0.29 | 0.00 | 84 | 1010.5 |
| 20260905053529 | 65 | 239 | 0.0 | 0.0 | 0.00 | 0.29 | 0.00 | 88 | 1010.6 |
| 20260905052548 | 64 | 252 | 0.0 | 1.0 | 0.00 | 0.29 | 0.00 | 89 | 1010.7 |
| 20260905051535 | 64 | 235 | 0.0 | 0.0 | 0.00 | 0.29 | 0.00 | 93 | 1010.9 |
| 20260905050541 | 64 | 235 | 0.0 | 0.0 | 0.00 | 0.29 | 0.00 | 93 | 1010.8 |
| 20260905044357 | 64 | 225 | 0.0 | 0.0 | 0.00 | 0.29 | 0.00 | 94 | 1011.0 |
| 20260905043417 | 64 | 225 | 0.0 | 0.0 | 0.00 | 0.29 | 0.00 | 94 | 1011.1 |
| 20260905042350 | 64 | 225 | 0.0 | 0.0 | 0.00 | 0.29 | 0.00 | 94 | 1011.1 |
| 20260905041403 | 64 | 225 | 0.0 | 0.0 | 0.00 | 0.29 | 0.00 | 94 | 1011.0 |
| 20260905040412 | 64 | 225 | 0.0 | 0.0 | 0.00 | 0.29 | 0.00 | 94 | 1011.1 |
| 20260905035343 | 64 | 225 | 0.0 | 0.0 | 0.00 | 0.29 | 0.28 | 94 | 1011.1 |
| 20260905034402 | 64 | 225 | 0.0 | 0.0 | 0.00 | 0.29 | 0.28 | 94 | 1011.2 |
| 20260905033334 | 64 | 225 | 0.0 | 0.0 | 0.00 | 0.29 | 0.28 | 94 | 1011.0 |
| 20260905032352 | 64 | 225 | 0.0 | 0.0 | 0.00 | 0.29 | 0.28 | 94 | 1011.0 |
| 20260905031406 | 65 | 225 | 0.0 | 0.0 | 0.00 | 0.29 | 0.28 | 94 | 1010.9 |
| 20260905030359 | 65 | 225 | 0.0 | 0.0 | 0.00 | 0.29 | 0.28 | 94 | 1010.9 |
| 20260905025422 | 65 | 225 | 0.0 | 0.0 | 0.00 | 0.29 | 0.28 | 93 | 1011.0 |
| 20260905023310 | 66 | 225 | 0.0 | 0.0 | 0.00 | 0.29 | 0.28 | 94 | 1010.8 |
| 20260905022257 | 66 | 225 | 0.0 | 0.0 | 0.00 | 0.29 | 0.28 | 94 | 1010.7 |
| 20260905021224 | 66 | 225 | 0.0 | 0.0 | 0.00 | 0.29 | 0.28 | 94 | 1010.7 |
| 20260905020201 | 66 | 225 | 0.0 | 0.0 | 0.00 | 0.29 | 0.28 | 94 | 1010.8 |
| 20260905015208 | 66 | 225 | 0.0 | 0.0 | 0.00 | 0.29 | 0.28 | 94 | 1010.7 |
| 20260905014224 | 66 | 225 | 0.0 | 0.0 | 0.00 | 0.29 | 0.28 | 93 | 1010.8 |
| 20260905013154 | 66 | 225 | 0.0 | 0.0 | 0.00 | 0.29 | 0.28 | 92 | 1010.9 |
| 20260905012136 | 66 | 225 | 0.0 | 0.0 | 0.00 | 0.29 | 0.28 | 92 | 1010.9 |
| 20260905011124 | 67 | 225 | 0.0 | 0.0 | 0.00 | 0.29 | 0.28 | 91 | 1010.8 |
| 20260905010138 | 67 | 225 | 0.0 | 0.0 | 0.00 | 0.29 | 0.28 | 91 | 1010.8 |
| 20260905004052 | 67 | 225 | 0.0 | 0.0 | 0.00 | 0.29 | 0.28 | 90 | 1010.8 |
| 20260905003034 | 68 | 225 | 0.0 | 0.0 | 0.00 | 0.29 | 0.28 | 90 | 1010.7 |
| 20260905002049 | 68 | 225 | 0.0 | 0.0 | 0.00 | 0.29 | 0.28 | 89 | 1010.7 |
| 20260905001104 | 69 | 225 | 0.0 | 0.0 | 0.00 | 0.29 | 0.28 | 89 | 1010.6 |
| 20260905000113 | 69 | 225 | 0.0 | 0.0 | 0.00 | 0.29 | 0.28 | 88 | 1010.6 |
| 20260904233945 | 70 | 225 | 0.0 | 0.0 | 0.00 | 0.29 | 0.28 | 86 | 1010.5 |
| 20260904232912 | 71 | 225 | 0.0 | 0.0 | 0.00 | 0.29 | 0.28 | 86 | 1010.3 |
| 20260904231845 | 71 | 225 | 0.0 | 0.0 | 0.00 | 0.29 | 0.28 | 86 | 1010.3 |
| 20260904230828 | 72 | 225 | 0.0 | 0.0 | 0.00 | 0.29 | 0.28 | 85 | 1010.2 |
| 20260904225826 | 72 | 225 | 0.0 | 0.0 | 0.00 | 0.29 | 0.28 | 86 | 1010.3 |
| 20260904223721 | 74 | 225 | 0.0 | 0.0 | 0.00 | 0.29 | 0.28 | 83 | 1010.4 |
| 20260904221545 | 76 | 225 | 0.0 | 0.0 | 0.00 | 0.29 | 0.28 | 77 | 1010.2 |
| 20260904220524 | 78 | 225 | 0.0 | 0.0 | 0.00 | 0.29 | 0.28 | 75 | 1010.1 |
| 20260904215505 | 80 | 225 | 0.0 | 0.0 | 0.00 | 0.29 | 0.28 | 70 | 1010.1 |
| 20260904214450 | 82 | 176 | 0.0 | 0.0 | 0.00 | 0.29 | 0.28 | 66 | 1010.2 |
| 20260904213435 | 81 | 165 | 0.0 | 0.0 | 0.00 | 0.29 | 0.28 | 67 | 1010.1 |
| 20260904212419 | 81 | 165 | 0.0 | 0.0 | 0.00 | 0.29 | 0.28 | 65 | 1010.1 |